Sabula, IA

9:58 PM CDT on July 24, 2016 (GMT -0500)
Tri-Township

Weather History for KSFY - June, 2013

Change the Weather History Date:

Saturday, June 15, 2013

  Actual Average (KCWI) Record (KCWI)
Temperature  
Mean Temperature 73 °F -  
Max Temperature 82 °F 80 °F 96 °F (1987)
Min Temperature 64 °F 61 °F 46 °F (1999)
Cooling Degree Days 8    
Growing Degree Days 23 (Base 50)    
Moisture  
Dew Point 63 °F    
Average Humidity 73    
Maximum Humidity 94    
Minimum Humidity 54    
Precipitation  
Precipitation 0.01 in - - ()
Sea Level Pressure  
Sea Level Pressure 29.95 in    
Wind  
Wind Speed 6 mph (South)    
Max Wind Speed 20 mph    
Max Gust Speed 33 mph    
Visibility 10 miles    
Events Rain    
Averages and records for this station are not official NWS values.
T = Trace of Precipitation, MM = Missing Value Source: NWS Daily Summary

Daily Weather History Graph

Daily Weather History Graph

Search for Another Location

Airport or City:

Trip Planner

Search our weather history database for the weather conditions in past years. The results will help you decide how hot, cold, wet, or windy it might be!

Date:

Astronomy

Jun. 15, 2013 Rise Set
Actual Time 5:24 AM CDT 8:38 PM CDT
Civil Twilight 4:49 AM CDT 9:12 PM CDT
Nautical Twilight 4:05 AM CDT 9:56 PM CDT
Astronomical Twilight 3:11 AM CDT 10:50 PM CDT
Moon 12:05 PM CDT (6/15) 12:07 AM CDT (6/15)
Length of Visible Light 16h 22m
Length of Day
15h 13m
Waxing Crescent, 40% of the Moon is Illuminated
Jun 15
Waxing Crescent
Jun 16
First Quarter
Jun 23
Full
Jun 29
Last Quarter
Jul 8
New

Hourly Weather History & Observations

Time (CDT) Temp. Heat Index Dew Point Humidity Pressure Visibility Wind Dir Wind Speed Gust Speed Precip Events Conditions
12:16 AM 68.0 °F - 57.2 °F 68% 30.02 in 10.0 mi South 3.5 mph - N/A   Clear
12:36 AM 69.8 °F - 57.2 °F 64% 30.03 in 10.0 mi SSW 4.6 mph - N/A   Clear
12:56 AM 68.0 °F - 57.2 °F 68% 30.02 in 10.0 mi Calm Calm - N/A   Clear
1:16 AM 68.0 °F - 57.2 °F 68% 30.01 in 10.0 mi SE 6.9 mph - N/A   Clear
1:38 AM 68.0 °F - 57.2 °F 68% 30.00 in 10.0 mi SE 4.6 mph - N/A   Clear
1:56 AM 68.0 °F - 57.2 °F 68% 29.99 in 10.0 mi SE 6.9 mph - N/A   Clear
2:16 AM 66.2 °F - 57.2 °F 73% 30.00 in 10.0 mi Calm Calm - N/A   Scattered Clouds
2:36 AM 66.2 °F - 59.0 °F 78% 30.02 in 10.0 mi Calm Calm - N/A   Mostly Cloudy
2:56 AM 66.2 °F - 59.0 °F 78% 30.01 in 10.0 mi SSE 4.6 mph - N/A   Mostly Cloudy
3:16 AM 66.2 °F - 59.0 °F 78% 30.01 in 10.0 mi Calm Calm - N/A   Scattered Clouds
3:36 AM 66.2 °F - 59.0 °F 78% 30.02 in 10.0 mi South 3.5 mph - N/A   Mostly Cloudy
3:56 AM 66.2 °F - 59.0 °F 78% 30.02 in 10.0 mi SSE 5.8 mph - N/A   Overcast
4:16 AM 66.2 °F - 60.8 °F 83% 30.01 in 10.0 mi SSE 6.9 mph - N/A Rain Light Rain
4:36 AM 66.2 °F - 59.0 °F 78% 29.99 in 10.0 mi SSE 6.9 mph - N/A   Overcast
4:56 AM 66.2 °F - 59.0 °F 78% 29.98 in 10.0 mi SSE 10.4 mph - N/A   Overcast
5:17 AM 66.2 °F - 59.0 °F 78% 29.96 in 10.0 mi SE 10.4 mph - N/A   Scattered Clouds
5:36 AM 66.2 °F - 57.2 °F 73% 29.95 in 10.0 mi SE 8.1 mph - N/A   Clear
5:56 AM 66.2 °F - 57.2 °F 73% 29.94 in 10.0 mi ENE 6.9 mph - N/A   Clear
6:16 AM 66.2 °F - 59.0 °F 78% 29.93 in 10.0 mi NE 6.9 mph - N/A   Light Drizzle
6:36 AM 66.2 °F - 60.8 °F 83% 29.97 in 10.0 mi East 3.5 mph - N/A Rain Light Rain
6:57 AM 66.2 °F - 60.8 °F 83% 29.97 in 10.0 mi Calm Calm - N/A Rain Light Rain
7:17 AM 66.2 °F - 60.8 °F 83% 29.96 in 10.0 mi NNE 3.5 mph - N/A   Overcast
7:36 AM 64.4 °F - 62.6 °F 94% 29.98 in 7.0 mi North 4.6 mph - N/A   Overcast
7:56 AM 64.4 °F - 60.8 °F 88% 29.99 in 7.0 mi NE 4.6 mph - N/A   Overcast
8:16 AM 64.4 °F - 60.8 °F 88% 29.99 in 7.0 mi ENE 4.6 mph - N/A Rain Rain
8:36 AM 64.4 °F - 62.6 °F 94% 29.99 in 5.0 mi Calm Calm - 0.01 in Rain Rain
9:18 AM 66.2 °F - 62.6 °F 88% 29.99 in 7.0 mi SE 6.9 mph - N/A Rain Light Rain
9:36 AM 66.2 °F - 62.6 °F 88% 29.98 in 10.0 mi ESE 5.8 mph - N/A   Scattered Clouds
9:56 AM 69.8 °F - 64.4 °F 83% 29.97 in 10.0 mi ESE 4.6 mph - N/A   Clear
10:16 AM 69.8 °F - 64.4 °F 83% 29.97 in 10.0 mi ESE 4.6 mph - N/A   Clear
10:39 AM 71.6 °F - 64.4 °F 78% 29.97 in 10.0 mi SSE 9.2 mph - N/A   Scattered Clouds
10:56 AM 71.6 °F - 64.4 °F 78% 29.98 in 10.0 mi SSE 5.8 mph - N/A   Mostly Cloudy
11:16 AM 73.4 °F - 64.4 °F 73% 29.97 in 10.0 mi SSE 5.8 mph - N/A   Mostly Cloudy
11:36 AM 75.2 °F - 64.4 °F 69% 29.96 in 10.0 mi South 9.2 mph - N/A   Scattered Clouds
11:58 AM 75.2 °F - 64.4 °F 69% 29.97 in 10.0 mi SW 6.9 mph - N/A   Scattered Clouds
12:16 PM 75.2 °F - 66.2 °F 73% 29.96 in 10.0 mi South 6.9 mph - N/A   Scattered Clouds
12:36 PM 78.8 °F - 66.2 °F 65% 29.96 in 10.0 mi South 8.1 mph - N/A   Clear
12:56 PM 78.8 °F - 66.2 °F 65% 29.96 in 10.0 mi South 5.8 mph - N/A   Scattered Clouds
1:36 PM 82.4 °F 84.6 °F 66.2 °F 58% 29.95 in 10.0 mi SSW 4.6 mph - N/A   Scattered Clouds
1:56 PM 80.6 °F 82.7 °F 66.2 °F 61% 29.95 in 10.0 mi SSW 4.6 mph - N/A   Clear
2:16 PM 82.4 °F 83.9 °F 64.4 °F 54% 29.95 in 10.0 mi South 5.8 mph - N/A   Scattered Clouds
2:36 PM 82.4 °F 84.6 °F 66.2 °F 58% 29.94 in 10.0 mi SSW 6.9 mph - N/A   Overcast
2:56 PM 80.6 °F 82.7 °F 66.2 °F 61% 29.94 in 10.0 mi SW 4.6 mph - N/A   Overcast
3:17 PM 80.6 °F 82.7 °F 66.2 °F 61% 29.93 in 10.0 mi SSW 4.6 mph - N/A   Overcast
3:36 PM 82.4 °F 84.6 °F 66.2 °F 58% 29.92 in 10.0 mi SSW 4.6 mph - N/A   Mostly Cloudy
3:56 PM 80.6 °F 82.7 °F 66.2 °F 61% 29.92 in 10.0 mi SSW 10.4 mph - N/A   Overcast
4:16 PM 80.6 °F 82.7 °F 66.2 °F 61% 29.91 in 10.0 mi SSW 10.4 mph 16.1 mph N/A   Overcast
4:36 PM 78.8 °F - 66.2 °F 65% 29.92 in 10.0 mi SSW 13.8 mph - N/A   Overcast
4:56 PM 78.8 °F - 66.2 °F 65% 29.91 in 10.0 mi SSW 8.1 mph - N/A   Overcast
5:16 PM 80.6 °F 82.7 °F 66.2 °F 61% 29.88 in 10.0 mi SSW 6.9 mph - N/A   Mostly Cloudy
5:36 PM 78.8 °F - 66.2 °F 65% 29.87 in 10.0 mi South 9.2 mph - N/A   Clear
5:59 PM 78.8 °F - 66.2 °F 65% 29.85 in 10.0 mi South 11.5 mph - N/A   Clear
6:38 PM 78.8 °F - 66.2 °F 65% 29.84 in 10.0 mi SSE 9.2 mph - N/A   Clear
6:56 PM 78.8 °F - 68.0 °F 69% 29.84 in 10.0 mi South 6.9 mph - N/A   Clear
7:19 PM 77.0 °F - 68.0 °F 74% 29.87 in 10.0 mi SSW 9.2 mph - N/A   Clear
7:56 PM 78.8 °F - 68.0 °F 69% 29.90 in 10.0 mi SW 10.4 mph 16.1 mph N/A   Scattered Clouds
8:39 PM 77.0 °F - 68.0 °F 74% 29.88 in 10.0 mi SW 8.1 mph - N/A   Scattered Clouds
8:56 PM 77.0 °F - 68.0 °F 74% 29.87 in 10.0 mi SW 10.4 mph - N/A   Scattered Clouds
9:16 PM 77.0 °F - 68.0 °F 74% 29.88 in 10.0 mi SSW 8.1 mph - N/A   Clear
9:36 PM 77.0 °F - 69.8 °F 78% 29.89 in 10.0 mi SSW 9.2 mph - N/A   Clear
9:56 PM 75.2 °F - 69.8 °F 83% 29.89 in 10.0 mi SSW 10.4 mph - N/A   Clear
10:16 PM 77.0 °F - 69.8 °F 78% 29.92 in 10.0 mi WSW 11.5 mph - N/A   Mostly Cloudy
10:36 PM 77.0 °F - 66.2 °F 69% 29.93 in 10.0 mi WSW 19.6 mph 26.5 mph N/A   Overcast
10:56 PM 75.2 °F - 64.4 °F 69% 29.94 in 10.0 mi SW 15.0 mph 28.8 mph N/A   Mostly Cloudy
11:16 PM 73.4 °F - 64.4 °F 73% 29.94 in 10.0 mi SW 19.6 mph 33.4 mph N/A   Scattered Clouds
11:36 PM 73.4 °F - 64.4 °F 73% 29.94 in 10.0 mi SW 19.6 mph 27.6 mph N/A   Mostly Cloudy